Regional Weather Roundup
Issued by NWS

Home | Current Version | Previous Version | Text Only | Print | Product List | Glossary Off
Versions: 1 2 3 4 5 6 7 8 9 10 11 12 13 14 15 16 17 18 19 20 21 22 23 24 25 26 27 28 29 30 31 32 33 34 35 36 37 38 39 40 41 42 43 44 45 46 47 48 49 50

000
ASUS43 KIND 281009
RWRIN

WEATHER ROUNDUP FOR INDIANA
NATIONAL WEATHER SERVICE INDIANAPOLIS IN
600 AM EDT THU AUG 28 2014

NOTE: "FAIR" INDICATES FEW OR NO CLOUDS BELOW 12,000 FEET WITH NO
SIGNIFICANT WEATHER AND/OR OBSTRUCTIONS TO VISIBILITY.

* - STATION DOES NOT REPORT WEATHER SUCH AS PRECIPITATION OR FOG.

+ - STATION NOT QUALITY CONTROLLED BY THE NATIONAL WEATHER SERVICE.
    USE DATA WITH CAUTION...ESPECIALLY DEWPOINT AND RELATIVE
    HUMIDITY OBSERVATIONS.

INZ001>003-010>013-019-020-281100-
NORTHWEST INDIANA

CITY           SKY/WX    TMP DP  RH WIND       PRES   REMARKS
GARY /AIRPORT/ PTCLDY    68  57  68 NE14      30.13S
KNOX *+        PTCLDY    60  56  88 NE5       30.13S
LA PORTE +     PTCLDY    59  55  88 NE6       30.14S
MICHIGAN CITY+ PTCLDY    55  55 100 CALM      30.14S
MONTICELLO +   CLOUDY    63  61  94 NE6       30.10F
RENSSELAER +   PTCLDY    61  61 100 NE5       30.12S
VALPARAISO     CLEAR     59  55  87 NE5       30.14R

$$

LMZ046-743>745-281100-
SOUTHERN LAKE MICHIGAN

STATION/POSITION TIME  TEMP WIND        PRES
                       AIR  DIR/SP/G
                 (UTC) (F)  (DEG/KT/KT) (MB)
MICHIGAN CITY    1000   62   50/  7/  9   N/A

$$

INZ004-005-014>016-021>024-281100-
NORTH CENTRAL INDIANA

CITY           SKY/WX    TMP DP  RH WIND       PRES   REMARKS
GOSHEN         CLEAR     60  55  83 CALM      30.13R
LOGANSPORT +   PTCLDY    61  59  94 NE3       30.12S
PERU/GRISSOM   MOCLDY    63  63 100 NE8       30.12R
ROCHESTER +    CLEAR     61  61 100 CALM      30.13S
SOUTH BEND     CLEAR     60  55  83 E3        30.15R
WARSAW +       PTCLDY    59  59 100 CALM      30.14R

$$

INZ006>009-017-018-025>027-281100-
NORTHEAST INDIANA

CITY           SKY/WX    TMP DP  RH WIND       PRES   REMARKS
ANGOLA *+      CLEAR     59  55  88 CALM      30.14S
AUBURN +       PTCLDY    59  55  88 CALM      30.13S
FORT WAYNE     PTCLDY    62  59  90 N3        30.13R
HUNTINGTON +   CLEAR     60  59  97 CALM      30.13R

$$

INZ028-029-035-036-043>045-051>053-281100-
WEST CENTRAL INDIANA

CITY           SKY/WX    TMP DP  RH WIND       PRES   REMARKS
GREENCASTLE +  CLEAR     64  63  94 CALM      30.10R
LAFAYETTE      MOCLDY    64  61  90 NE9       30.10S
TERRE HAUTE    MOCLDY    67  64  90 NE6       30.08S

$$

INZ030>032-037>040-046>048-054>057-064-065-281100-
CENTRAL INDIANA

CITY           SKY/WX    TMP DP  RH WIND       PRES   REMARKS
CP ATTERBURY + CLEAR     63  61  94 CALM      30.09R
FRANKFORT +    PTCLDY   N/A N/A N/A NE5       30.12S
GREENWOOD *+   CLEAR     66  64  94 NE3       30.09R
INDIANAPOLIS   CLEAR     67  62  84 NE8       30.08R
-EAGLE CREEK   CLEAR     67  60  78 NE3       30.09R
KOKOMO *+      PTCLDY    64  61  88 NE5       30.12R
MARION +       PTCLDY    62  59  91 NE3       30.12R
MT COMFORT *+  CLEAR     63 N/A N/A CALM      30.10R
SHELBYVILLE    CLEAR     65  62  90 N3        30.08R
ZIONSVILLE +   CLEAR     63  59  87 NE5       30.11S

$$

INZ033-034-041-042-049-050-058-059-281100-
EAST CENTRAL INDIANA

CITY           SKY/WX    TMP DP  RH WIND       PRES   REMARKS
MUNCIE         CLEAR     63  60  90 N3        30.11R

$$

INZ060-061-067>069-081>083-085>088-281100-
SOUTHWEST INDIANA

CITY           SKY/WX    TMP DP  RH WIND       PRES   REMARKS
EVANSVILLE     PTCLDY    74  71  91 N3        30.04S
WASHINGTON +   PTCLDY    70  70 100 CALM      30.05S FOG

$$

INZ062-063-066-070>080-084-089>092-281100-
SOUTH CENTRAL AND SOUTHEAST INDIANA

CITY           SKY/WX    TMP DP  RH WIND       PRES   REMARKS
BLOOMINGTON    CLEAR     68  64  87 NE3       30.08S

$$




USA.gov is the U.S. government's official web portal to all federal, state and local government web resources and services.